Location: Algiers
(26.6189°S, 24.0635°E)
Time: 15:18:34
(UTC+00:00)

Daily predictions for brighter satellites

Satellite Brightness Start Highest point End
(mag) Time Altitude Azimuth Time Altitude Azimuth Time Altitude Azimuth
Cosmos 839 Rocket 4.4 17:03:03 10° NNW 17:11:10 71° ENE 17:17:46 10° SSE
USA 215 3.6 17:05:08 10° SE 17:11:44 77° SW 17:18:16 10° NW
Geosat FO 4.5 17:11:52 10° NNE 17:15:14 85° WNW 17:18:35 10° SSW
Cosmos 1741 Rocket 4.1 17:11:52 10° NNW 17:17:07 90° WSW 17:22:25 10° SSE
X-37B 3.4 17:15:25 10° W 17:17:30 16° NW 17:19:34 10° N
Cosmos 1818 3.7 17:12:42 10° N 17:17:57 54° ENE 17:23:12 10° SE
Cosmos 1271 Rocket 3.1 17:14:32 10° NNE 17:18:12 43° E 17:21:58 10° SSE
Feng Yun 1-1 Rocket 4.3 17:14:37 10° SSE 17:20:12 63° ENE 17:25:51 10° N
Lacrosse 4 Rocket 4.5 17:18:21 10° WSW 17:20:33 14° WNW 17:22:46 10° NW
Kosmos-1675 4.1 17:17:26 10° SSW 17:21:37 32° SE 17:24:06 10° ENE
COSMOS 2428 4.1 17:16:13 10° SW 17:21:38 44° WNW 17:26:59 10° N
Delta 198 3.4 17:18:28 10° W 17:22:16 65° N 17:26:29 11° ENE
YAOGAN 1 3.3 17:19:53 10° SE 17:23:49 32° E 17:27:42 10° NNE
Helios 1A Rocket 4.5 17:21:32 10° ESE 17:24:06 16° E 17:26:38 10° NE
GPS 2-17 Rocket1 4.1 17:22:40 10° NW 17:26:41 31° N 17:30:30 11° ENE
Cosmos 1980 3.7 17:22:14 10° SSW 17:27:56 70° ESE 17:33:33 10° NNE
Meteor 1-11 Rocket 3.8 17:22:01 10° S 17:28:01 74° E 17:33:54 10° NNE
Cosmos 2219 Rocket 4.3 17:24:08 10° SW 17:28:56 29° WNW 17:33:41 10° NNW
CZ-4 R/B 4.4 17:25:15 10° SSE 17:29:28 80° ENE 17:33:38 10° N
GP-B 3.2 17:26:39 10° SSE 17:31:04 55° E 17:35:25 10° N
COSMOS 2455 3.4 17:30:31 10° N 17:35:52 35° ENE 17:41:15 10° SE
ARGOS 3.7 17:31:07 10° SE 17:36:01 34° E 17:40:52 10° NNE
SME Rocket 3.4 17:35:35 10° N 17:39:18 63° WNW 17:43:19 10° SSW
Cosmos 1238 Rocket 4.0 17:35:24 10° S 17:41:58 64° E 17:47:49 10° NNE
CZ-3 Stage 3 3.4 17:43:38 10° W 17:46:25 60° S 17:52:34 12° ESE
H-2A R/B 2.0 17:42:10 10° SSE 17:47:25 73° ENE 17:52:44 10° N
Cosmos 1536 2.8 17:43:33 10° S 17:47:41 90° NW 17:51:44 10° N
Cosmos 1862 Rocket 3.5 17:44:18 10° N 17:48:41 67° E 17:53:06 10° SSE
CZ-4 R/B 1.2 17:44:43 10° SSE 17:48:42 88° ENE 17:52:34 10° NNW
OAO 2 Rocket 3.7 17:45:16 10° NW 17:50:20 47° NNE 17:53:52 19° E
Palapa B4 Rocket 3.9 17:47:50 10° WNW 17:51:19 28° N 17:52:55 20° NE
IRS-1C Rocket 4.1 17:46:04 10° SSE 17:51:23 89° WSW 17:56:39 10° NNW
Cosmos 540 Rocket 4.3 17:49:26 10° S 17:53:56 30° ESE 17:55:59 23° ENE
ATLAS 3B R/B 3.1 17:49:11 10° SSW 17:55:42 42° ESE 17:59:40 21° ENE
Cosmos 1743 2.9 17:52:59 10° S 17:56:44 47° E 17:59:09 20° NNE
Nadezhda 3 Rocket 4.0 17:51:17 10° N 17:57:36 74° E 18:03:54 10° S
Cosmos 1544 3.0 17:56:34 10° S 18:00:09 59° E 18:02:29 20° NNE
SL-8 R/B 3.7 17:55:46 10° NW 18:00:36 84° SW 18:05:28 10° SE
Cosmos 2227 4.3 18:00:08 10° N 18:05:36 51° ENE 18:11:05 10° SSE
Okean-O 2.8 18:03:32 10° S 18:08:02 74° WSW 18:12:27 10° NNW
ASTEX 1 3.3 18:03:18 10° N 18:08:12 80° E 18:13:12 10° S
CSL-04 Rocket 3.8 18:03:00 10° SSE 18:08:27 54° ENE 18:13:51 10° N
SL-08 R/B 4.4 18:02:37 10° S 18:08:56 83° E 18:15:17 10° N
TSX-5 3.4 18:05:51 10° NNW 18:09:12 71° ENE 18:13:17 10° SSE
CZ-4B R/B 4.5 18:05:24 10° SSE 18:09:51 69° ENE 18:14:10 10° N
CSL-04 Debris 4.1 18:04:34 10° SSE 18:09:57 61° ENE 18:15:16 10° N
Skynet4D Del rocket 4.5 18:02:39 10° W 18:11:05 89° N 18:15:41 28° E
BREEZE-M DEB (TANK) 4.3 18:02:41 10° SW 18:13:29 60° SE 18:15:06 37° E
USA 81 4.2 18:08:35 10° S 18:13:46 50° E 18:16:20 27° NE
Cosmos 2098 4.2 18:12:20 10° S 18:15:22 77° W 18:16:25 37° N
Cosmos 2263 Rocket 2.1 18:10:49 10° N 18:16:21 71° ENE 18:22:01 10° SSE
HJ-1C 4.0 18:13:26 10° S 18:16:48 59° WSW 18:20:06 10° NNW
Cosmos 968 Rocket 3.6 18:12:07 10° N 18:17:08 49° ENE 18:22:11 10° SSE
Meteor 1-18 Rocket 4.2 18:11:34 10° N 18:17:22 87° W 18:23:08 10° S
BREEZE M DEB (TANK) 1.5 18:15:29 10° SW 18:17:37 75° NW 18:17:37 75° NW
Okean 1 4.4 18:16:16 10° NNW 18:20:11 47° W 18:24:08 10° S
Cosmos 1486 Rocket 4.2 18:15:54 10° N 18:20:58 46° ENE 18:26:05 10° SSE
Cosmos 1733 Rocket 3.0 18:17:51 10° S 18:22:15 84° W 18:24:56 23° N
CZ-2C R/B 0.9 18:19:38 10° WNW 18:22:21 59° NW 18:22:21 59° NW
Okean 1-7 3.7 18:25:15 37° SE 18:25:15 37° SE 18:28:12 10° SSE
Cosmos 2237 Rocket 3.9 18:23:14 10° SW 18:28:13 32° WNW 18:33:11 10° NNW
DASH 3.3 18:25:26 10° NW 18:28:38 30° NNW 18:28:38 30° NNW
Cosmos 1821 Rocket 4.0 18:27:45 10° S 18:34:14 85° W 18:40:00 13° N
SL-08 RB Rocket 4.0 18:32:06 10° S 18:36:35 66° WSW 18:41:00 10° NNW
OAO 3 Rocket 4.2 18:33:59 10° SW 18:38:32 37° SSE 18:39:17 35° SSE
Lacrosse 5 rocket 2.4 18:41:11 10° NW 18:43:32 35° NW 18:43:32 35° NW
Lacrosse 5 4.2 18:41:59 10° WSW 18:45:27 18° WNW 18:48:54 10° NNW
SL-16 R/B 2.3 18:41:45 10° SSW 18:47:26 75° WNW 18:49:02 48° N
Cosmos 1339 Rocket 4.4 18:43:56 20° N 18:48:30 80° E 18:54:59 10° S
ISS -0.9 18:48:38 10° SSW 18:49:13 13° S 18:49:13 13° S
Cosmos 1975 4.3 18:51:23 10° S 18:53:30 30° S 18:53:30 30° S
Cosmos 921 Rocket 3.9 18:51:49 10° SSW 18:55:51 44° W 18:55:56 44° WNW
ATLAS 3B CENTAUR R/B 3.3 18:46:55 10° NW 18:56:37 42° N 18:56:37 42° N
Cosmos 1934 Rocket 3.7 18:51:27 10° S 18:57:38 81° E 18:58:01 77° NE
Atlas Centaur 2 4.2 19:00:09 10° NNW 19:00:56 13° NNW 19:00:56 13° NNW
MetOp-A 4.4 19:06:43 10° S 19:12:00 65° WSW 19:12:00 65° WSW
USA 267 4.3 19:21:22 31° SSE 19:21:22 31° SSE 19:26:16 10° SSW
ATLAS 3B R/B 4.2 19:40:36 10° SW 19:45:59 25° WNW 19:46:58 25° WNW
